Year,Month,Day,Hour,Minute,Value (Times are PST for windspeed in km/hr)
2017,01,11,00,00,24.40
2017,01,11,00,01,19.60
2017,01,11,00,02,30.80
2017,01,11,00,03,37.60
2017,01,11,00,04,38.90
2017,01,11,00,05,39.90
2017,01,11,00,06,31.40
2017,01,11,00,07,26.70
2017,01,11,00,08,25.50
2017,01,11,00,09,31.00
2017,01,11,00,10,32.20
2017,01,11,00,11,34.20
2017,01,11,00,12,33.40
2017,01,11,00,13,30.50
2017,01,11,00,14,38.50
2017,01,11,00,15,42.10
2017,01,11,00,16,38.40
2017,01,11,00,17,35.70
2017,01,11,00,18,37.80
2017,01,11,00,19,28.50
2017,01,11,00,20,35.90
2017,01,11,00,21,22.90
2017,01,11,00,22,21.50
2017,01,11,00,23,35.20
2017,01,11,00,24,27.70
2017,01,11,00,25,34.60
2017,01,11,00,26,39.90
2017,01,11,00,27,32.80
2017,01,11,00,28,41.20
2017,01,11,00,29,28.70
2017,01,11,00,30,27.80
2017,01,11,00,31,30.50
2017,01,11,00,32,28.60
2017,01,11,00,33,39.60
2017,01,11,00,34,27.20
2017,01,11,00,35,29.50
2017,01,11,00,36,32.90
2017,01,11,00,37,30.30
2017,01,11,00,38,30.20
2017,01,11,00,39,30.60
2017,01,11,00,40,30.60
2017,01,11,00,41,22.00
2017,01,11,00,42,29.10
2017,01,11,00,43,29.60
2017,01,11,00,44,22.70
2017,01,11,00,45,25.70
2017,01,11,00,46,21.50
2017,01,11,00,47,24.30
2017,01,11,00,48,26.50
2017,01,11,00,49,27.40
2017,01,11,00,50,21.00
2017,01,11,00,51,22.50
2017,01,11,00,52,35.90
2017,01,11,00,53,34.50
2017,01,11,00,54,31.40
2017,01,11,00,55,27.50
2017,01,11,00,56,34.40
2017,01,11,00,57,23.80
2017,01,11,00,58,21.80
2017,01,11,00,59,25.40
2017,01,11,01,00,25.70
2017,01,11,01,01,21.40
2017,01,11,01,02,30.60
2017,01,11,01,03,29.20
2017,01,11,01,04,26.70
2017,01,11,01,05,28.50
2017,01,11,01,06,33.80
2017,01,11,01,07,28.60
2017,01,11,01,08,31.50
2017,01,11,01,09,22.00
2017,01,11,01,10,32.20
2017,01,11,01,11,28.50
2017,01,11,01,12,25.80
2017,01,11,01,13,35.90
2017,01,11,01,14,37.30
2017,01,11,01,15,24.70
2017,01,11,01,16,35.20
2017,01,11,01,17,29.60
2017,01,11,01,18,24.50
2017,01,11,01,19,28.00
2017,01,11,01,20,24.50
2017,01,11,01,21,27.40
2017,01,11,01,22,17.00
2017,01,11,01,23,17.20
2017,01,11,01,24,22.10
2017,01,11,01,25,32.30
2017,01,11,01,26,29.80
2017,01,11,01,27,24.50
2017,01,11,01,28,21.90
2017,01,11,01,29,21.40
2017,01,11,01,30,26.10
2017,01,11,01,31,21.20
2017,01,11,01,32,22.10
2017,01,11,01,33,22.80
2017,01,11,01,34,19.80
2017,01,11,01,35,25.40
2017,01,11,01,36,23.50
2017,01,11,01,37,22.20
2017,01,11,01,38,24.50
2017,01,11,01,39,24.00
2017,01,11,01,40,29.70
2017,01,11,01,41,28.90
2017,01,11,01,42,31.40
2017,01,11,01,43,14.90
2017,01,11,01,44,28.10
2017,01,11,01,45,25.00
2017,01,11,01,46,26.40
2017,01,11,01,47,23.90
2017,01,11,01,48,24.10
2017,01,11,01,49,23.90
2017,01,11,01,50,28.60
2017,01,11,01,51,26.00
2017,01,11,01,52,27.10
2017,01,11,01,53,25.50
2017,01,11,01,54,26.80
2017,01,11,01,55,26.80
2017,01,11,01,56,21.80
2017,01,11,01,57,21.30
2017,01,11,01,58,22.00
2017,01,11,01,59,35.90
2017,01,11,02,00,24.10
2017,01,11,02,01,21.70
2017,01,11,02,02,22.40
2017,01,11,02,03,23.30
2017,01,11,02,04,23.00
2017,01,11,02,05,27.00
2017,01,11,02,06,24.10
2017,01,11,02,07,23.60
2017,01,11,02,08,21.50
2017,01,11,02,09,14.20
2017,01,11,02,10,16.60
2017,01,11,02,11,19.10
2017,01,11,02,12,14.60
2017,01,11,02,13,31.80
2017,01,11,02,14,31.10
2017,01,11,02,15,26.40
2017,01,11,02,16,31.50
2017,01,11,02,17,31.50
2017,01,11,02,18,21.60
2017,01,11,02,19,35.40
2017,01,11,02,20,26.60
2017,01,11,02,21,32.30
2017,01,11,02,22,31.10
2017,01,11,02,23,35.40
2017,01,11,02,24,20.30
2017,01,11,02,25,31.90
2017,01,11,02,26,34.00
2017,01,11,02,27,36.00
2017,01,11,02,28,26.10
2017,01,11,02,29,34.40
2017,01,11,02,30,23.80
2017,01,11,02,31,27.40
2017,01,11,02,32,28.10
2017,01,11,02,33,28.70
2017,01,11,02,34,28.10
2017,01,11,02,35,33.80
2017,01,11,02,36,29.50
2017,01,11,02,37,15.60
2017,01,11,02,38,11.70
2017,01,11,02,39,16.30
2017,01,11,02,40,20.00
2017,01,11,02,41,21.30
2017,01,11,02,42,25.80
2017,01,11,02,43,22.80
2017,01,11,02,44,23.80
2017,01,11,02,45,27.90
2017,01,11,02,46,32.70
2017,01,11,02,47,27.80
2017,01,11,02,48,33.20
2017,01,11,02,49,28.90
2017,01,11,02,50,32.20
2017,01,11,02,51,29.50
2017,01,11,02,52,29.50
2017,01,11,02,53,29.00
2017,01,11,02,54,34.70
2017,01,11,02,55,21.00
2017,01,11,02,56,23.20
2017,01,11,02,57,26.00
2017,01,11,02,58,28.00
2017,01,11,02,59,25.30
2017,01,11,03,00,24.40
2017,01,11,03,01,28.90
2017,01,11,03,02,30.50
2017,01,11,03,03,30.60
2017,01,11,03,04,31.00
2017,01,11,03,05,32.00
2017,01,11,03,06,27.40
2017,01,11,03,07,22.80
2017,01,11,03,08,24.80
2017,01,11,03,09,18.80
2017,01,11,03,10,20.60
2017,01,11,03,11,26.60
2017,01,11,03,12,39.20
2017,01,11,03,13,40.10
2017,01,11,03,14,37.80
2017,01,11,03,15,35.80
2017,01,11,03,16,33.10
2017,01,11,03,17,28.10
2017,01,11,03,18,31.70
2017,01,11,03,19,43.50
2017,01,11,03,20,36.60
2017,01,11,03,21,30.70
2017,01,11,03,22,31.40
2017,01,11,03,23,30.30
2017,01,11,03,24,24.80
2017,01,11,03,25,34.30
2017,01,11,03,26,29.10
2017,01,11,03,27,22.50
2017,01,11,03,28,24.50
2017,01,11,03,29,28.90
2017,01,11,03,30,25.50
2017,01,11,03,31,25.40
2017,01,11,03,32,27.70
2017,01,11,03,33,39.00
2017,01,11,03,34,36.50
2017,01,11,03,35,32.90
2017,01,11,03,36,27.00
2017,01,11,03,37,34.90
2017,01,11,03,38,34.20
2017,01,11,03,39,38.30
2017,01,11,03,40,35.40
2017,01,11,03,41,31.40
2017,01,11,03,42,35.10
2017,01,11,03,43,42.00
2017,01,11,03,44,27.70
2017,01,11,03,45,28.00
2017,01,11,03,46,39.70
2017,01,11,03,47,31.80
2017,01,11,03,48,25.70
2017,01,11,03,49,25.10
2017,01,11,03,50,29.90
2017,01,11,03,51,37.00
2017,01,11,03,52,26.00
2017,01,11,03,53,22.70
2017,01,11,03,54,29.70
2017,01,11,03,55,35.40
2017,01,11,03,56,41.50
2017,01,11,03,57,27.50
2017,01,11,03,58,30.90
2017,01,11,03,59,30.00
2017,01,11,04,00,27.20
2017,01,11,04,01,22.30
2017,01,11,04,02,20.10
2017,01,11,04,03,29.90
2017,01,11,04,04,35.60
2017,01,11,04,05,30.30
2017,01,11,04,06,23.80
2017,01,11,04,07,29.90
2017,01,11,04,08,36.40
2017,01,11,04,09,34.60
2017,01,11,04,10,25.60
2017,01,11,04,11,29.50
2017,01,11,04,12,29.10
2017,01,11,04,13,29.60
2017,01,11,04,14,26.70
2017,01,11,04,15,26.70
2017,01,11,04,16,27.10
2017,01,11,04,17,32.50
2017,01,11,04,18,32.30
2017,01,11,04,19,33.60
2017,01,11,04,20,22.80
2017,01,11,04,21,24.10
2017,01,11,04,22,31.90
2017,01,11,04,23,29.10
2017,01,11,04,24,28.30
2017,01,11,04,25,25.10
2017,01,11,04,26,34.10
2017,01,11,04,27,33.40
2017,01,11,04,28,29.40
2017,01,11,04,29,21.40
2017,01,11,04,30,33.60
2017,01,11,04,31,24.20
2017,01,11,04,32,26.70
2017,01,11,04,33,30.90
2017,01,11,04,34,29.00
2017,01,11,04,35,22.80
2017,01,11,04,36,22.80
2017,01,11,04,37,20.20
2017,01,11,04,38,15.50
2017,01,11,04,39,38.40
2017,01,11,04,40,22.30
2017,01,11,04,41,21.70
2017,01,11,04,42,24.20
2017,01,11,04,43,31.70
2017,01,11,04,44,26.70
2017,01,11,04,45,19.60
2017,01,11,04,46,18.10
2017,01,11,04,47,18.50
2017,01,11,04,48,19.60
2017,01,11,04,49,23.40
2017,01,11,04,50,18.30
2017,01,11,04,51,18.30
2017,01,11,04,52,21.80
2017,01,11,04,53,26.40
2017,01,11,04,54,26.10
2017,01,11,04,55,18.80
2017,01,11,04,56,17.70
2017,01,11,04,57,24.40
2017,01,11,04,58,24.20
2017,01,11,04,59,31.20
2017,01,11,05,00,22.50
2017,01,11,05,01,24.10
2017,01,11,05,02,24.80
2017,01,11,05,03,23.80
2017,01,11,05,04,21.60
2017,01,11,05,05,27.40
2017,01,11,05,06,18.60
2017,01,11,05,07,27.50
2017,01,11,05,08,24.80
2017,01,11,05,09,26.40
2017,01,11,05,10,21.50
2017,01,11,05,11,21.20
2017,01,11,05,12,29.40
2017,01,11,05,13,34.60
2017,01,11,05,14,29.00
2017,01,11,05,15,31.20
2017,01,11,05,16,23.60
2017,01,11,05,17,21.50
2017,01,11,05,18,24.90
2017,01,11,05,19,26.10
2017,01,11,05,20,26.70
2017,01,11,05,21,20.80
2017,01,11,05,22,25.20
2017,01,11,05,23,13.40
2017,01,11,05,24,19.90
2017,01,11,05,25,20.20
2017,01,11,05,26,22.70
2017,01,11,05,27,23.70
2017,01,11,05,28,19.80
2017,01,11,05,29,18.60
2017,01,11,05,30,17.10
2017,01,11,05,31,22.50
2017,01,11,05,32,24.70
2017,01,11,05,33,26.30
2017,01,11,05,34,15.90
2017,01,11,05,35,22.30
2017,01,11,05,36,15.00
2017,01,11,05,37,13.00
2017,01,11,05,38,24.50
2017,01,11,05,39,29.20
2017,01,11,05,40,22.60
2017,01,11,05,41,21.60
2017,01,11,05,42,30.30
2017,01,11,05,43,16.00
2017,01,11,05,44,24.00
2017,01,11,05,45,27.00
2017,01,11,05,46,21.50
2017,01,11,05,47,21.70
2017,01,11,05,48,19.10
2017,01,11,05,49,22.80
2017,01,11,05,50,12.40
2017,01,11,05,51,13.30
2017,01,11,05,52,22.40
2017,01,11,05,53,13.00
2017,01,11,05,54,25.20
2017,01,11,05,55,26.60
2017,01,11,05,56,21.30
2017,01,11,05,57,20.50
2017,01,11,05,58,18.60
2017,01,11,05,59,21.30
2017,01,11,06,00,19.00
2017,01,11,06,01,15.80
2017,01,11,06,02,20.10
2017,01,11,06,03,24.50
2017,01,11,06,04,18.40
2017,01,11,06,05,20.50
2017,01,11,06,06,28.00
2017,01,11,06,07,19.30
2017,01,11,06,08,21.00
2017,01,11,06,09,30.50
2017,01,11,06,10,28.60
2017,01,11,06,11,22.70
2017,01,11,06,12,28.30
2017,01,11,06,13,25.60
2017,01,11,06,14,19.80
2017,01,11,06,15,21.70
2017,01,11,06,16,22.70
2017,01,11,06,17,24.50
2017,01,11,06,18,27.60
2017,01,11,06,19,19.70
2017,01,11,06,20,20.20
2017,01,11,06,21,25.40
2017,01,11,06,22,24.80
2017,01,11,06,23,20.70
2017,01,11,06,24,18.90
2017,01,11,06,25,20.50
2017,01,11,06,26,18.40
2017,01,11,06,27,20.80
2017,01,11,06,28,9.40
2017,01,11,06,29,24.40
2017,01,11,06,30,24.60
2017,01,11,06,31,18.50
2017,01,11,06,32,21.30
2017,01,11,06,33,22.10
2017,01,11,06,34,21.60
2017,01,11,06,35,28.50
2017,01,11,06,36,17.10
2017,01,11,06,37,24.10
2017,01,11,06,38,23.90
2017,01,11,06,39,22.00
2017,01,11,06,40,21.20
2017,01,11,06,41,17.90
2017,01,11,06,42,16.00
2017,01,11,06,43,21.40
2017,01,11,06,44,22.30
2017,01,11,06,45,28.90
2017,01,11,06,46,27.80
2017,01,11,06,47,24.70
2017,01,11,06,48,23.30
2017,01,11,06,49,20.50
2017,01,11,06,50,21.90
2017,01,11,06,51,17.20
2017,01,11,06,52,11.00
2017,01,11,06,53,15.70
2017,01,11,06,54,24.30
2017,01,11,06,55,25.80
2017,01,11,06,56,21.60
2017,01,11,06,57,13.70
2017,01,11,06,58,14.60
2017,01,11,06,59,8.70
2017,01,11,07,00,11.90
2017,01,11,07,01,16.20
2017,01,11,07,02,14.10
2017,01,11,07,03,21.40
2017,01,11,07,04,25.60
2017,01,11,07,05,24.00
2017,01,11,07,06,22.70
2017,01,11,07,07,17.50
2017,01,11,07,08,27.90
2017,01,11,07,09,23.30
2017,01,11,07,10,21.60
2017,01,11,07,11,27.40
2017,01,11,07,12,25.10
2017,01,11,07,13,23.30
2017,01,11,07,14,22.00
2017,01,11,07,15,17.70
2017,01,11,07,16,14.70
2017,01,11,07,17,21.00
2017,01,11,07,18,22.30
2017,01,11,07,19,21.90
2017,01,11,07,20,25.10
2017,01,11,07,21,25.70
2017,01,11,07,22,23.90
2017,01,11,07,23,23.20
2017,01,11,07,24,23.70
2017,01,11,07,25,15.80
2017,01,11,07,26,20.40
2017,01,11,07,27,20.10
2017,01,11,07,28,20.70
2017,01,11,07,29,20.50
2017,01,11,07,30,20.30
2017,01,11,07,31,29.40
2017,01,11,07,32,20.40
2017,01,11,07,33,23.00
2017,01,11,07,34,21.60
2017,01,11,07,35,16.70
2017,01,11,07,36,13.10
2017,01,11,07,37,15.00
2017,01,11,07,38,23.40
2017,01,11,07,39,19.20
2017,01,11,07,40,25.30
2017,01,11,07,41,23.60
2017,01,11,07,42,18.30
2017,01,11,07,43,21.30
2017,01,11,07,44,22.00
2017,01,11,07,45,20.60
2017,01,11,07,46,22.00
2017,01,11,07,47,18.90
2017,01,11,07,48,21.80
2017,01,11,07,49,24.50
2017,01,11,07,50,21.40
2017,01,11,07,51,23.20
2017,01,11,07,52,15.50
2017,01,11,07,53,17.00
2017,01,11,07,54,15.50
2017,01,11,07,55,25.70
2017,01,11,07,56,23.90
2017,01,11,07,57,23.50
2017,01,11,07,58,29.30
2017,01,11,07,59,24.50
2017,01,11,08,00,24.10
2017,01,11,08,01,17.10
2017,01,11,08,02,23.40
2017,01,11,08,03,22.60
2017,01,11,08,04,18.00
2017,01,11,08,05,15.90
2017,01,11,08,06,20.20
2017,01,11,08,07,16.50
2017,01,11,08,08,21.20
2017,01,11,08,09,20.80
2017,01,11,08,10,15.80
2017,01,11,08,11,22.00
2017,01,11,08,12,19.40
2017,01,11,08,13,19.80
2017,01,11,08,14,14.50
2017,01,11,08,15,16.40
2017,01,11,08,16,19.60
2017,01,11,08,17,16.80
2017,01,11,08,18,12.80
2017,01,11,08,19,11.00
2017,01,11,08,20,11.10
2017,01,11,08,21,18.70
2017,01,11,08,22,15.90
2017,01,11,08,23,18.30
2017,01,11,08,24,17.50
2017,01,11,08,25,23.90
2017,01,11,08,26,23.10
2017,01,11,08,27,21.50
2017,01,11,08,28,22.90
2017,01,11,08,29,24.30
2017,01,11,08,30,25.20
2017,01,11,08,31,18.30
2017,01,11,08,32,21.10
2017,01,11,08,33,26.30
2017,01,11,08,34,21.50
2017,01,11,08,35,26.20
2017,01,11,08,36,18.30
2017,01,11,08,37,22.60
2017,01,11,08,38,23.40
2017,01,11,08,39,29.10
2017,01,11,08,40,30.90
2017,01,11,08,41,21.50
2017,01,11,08,42,20.40
2017,01,11,08,43,29.20
2017,01,11,08,44,22.30
2017,01,11,08,45,22.60
2017,01,11,08,46,18.10
2017,01,11,08,47,21.20
2017,01,11,08,48,17.00
2017,01,11,08,49,18.20
2017,01,11,08,50,32.60
2017,01,11,08,51,27.40
2017,01,11,08,52,25.10
2017,01,11,08,53,23.80
2017,01,11,08,54,24.50
2017,01,11,08,55,18.70
2017,01,11,08,56,18.90
2017,01,11,08,57,17.10
2017,01,11,08,58,18.10
2017,01,11,08,59,17.20
2017,01,11,09,00,19.20
2017,01,11,09,01,22.50
2017,01,11,09,02,15.80
2017,01,11,09,03,18.40
2017,01,11,09,04,15.30
2017,01,11,09,05,25.80
2017,01,11,09,06,22.50
2017,01,11,09,07,17.90
2017,01,11,09,08,28.20
2017,01,11,09,09,24.90
2017,01,11,09,10,25.60
2017,01,11,09,11,26.50
2017,01,11,09,12,20.50
2017,01,11,09,13,24.10
2017,01,11,09,14,25.70
2017,01,11,09,15,31.10
2017,01,11,09,16,32.30
2017,01,11,09,17,30.00
2017,01,11,09,18,31.40
2017,01,11,09,19,22.10
2017,01,11,09,20,22.00
2017,01,11,09,21,22.00
2017,01,11,09,22,22.90
2017,01,11,09,23,28.60
2017,01,11,09,24,23.20
2017,01,11,09,25,22.30
2017,01,11,09,26,22.40
2017,01,11,09,27,21.50
2017,01,11,09,28,30.40
2017,01,11,09,29,30.80
2017,01,11,09,30,32.10
2017,01,11,09,31,29.70
2017,01,11,09,32,21.90
2017,01,11,09,33,25.70
2017,01,11,09,34,24.90
2017,01,11,09,35,22.70
2017,01,11,09,36,22.10
2017,01,11,09,37,23.30
2017,01,11,09,38,20.30
2017,01,11,09,39,17.90
2017,01,11,09,40,13.90
2017,01,11,09,41,14.80
2017,01,11,09,42,11.00
2017,01,11,09,43,17.00
2017,01,11,09,44,23.80
2017,01,11,09,45,15.90
2017,01,11,09,46,15.60
2017,01,11,09,47,16.10
2017,01,11,09,48,14.50
2017,01,11,09,49,11.10
2017,01,11,09,50,21.20
2017,01,11,09,51,19.50
2017,01,11,09,52,26.40
2017,01,11,09,53,19.80
2017,01,11,09,54,24.90
2017,01,11,09,55,22.10
2017,01,11,09,56,18.80
2017,01,11,09,57,18.90
2017,01,11,09,58,14.60
2017,01,11,09,59,13.40
2017,01,11,10,00,14.30
2017,01,11,10,01,11.50
2017,01,11,10,02,16.70
2017,01,11,10,03,14.80
2017,01,11,10,04,20.40
2017,01,11,10,05,23.90
2017,01,11,10,06,27.40
2017,01,11,10,07,15.60
2017,01,11,10,08,11.20
2017,01,11,10,09,17.90
2017,01,11,10,10,15.20
2017,01,11,10,11,22.20
2017,01,11,10,12,15.50
2017,01,11,10,13,20.80
2017,01,11,10,14,21.40
2017,01,11,10,15,22.20
2017,01,11,10,16,11.60
2017,01,11,10,17,18.30
2017,01,11,10,18,20.00
2017,01,11,10,19,21.60
2017,01,11,10,20,16.40
2017,01,11,10,21,25.70
2017,01,11,10,22,22.40
2017,01,11,10,23,16.60
2017,01,11,10,24,22.00
2017,01,11,10,25,14.30
2017,01,11,10,26,17.60
2017,01,11,10,27,18.40
2017,01,11,10,28,11.30
2017,01,11,10,29,11.80
2017,01,11,10,30,22.80
2017,01,11,10,31,16.20
2017,01,11,10,32,21.20
2017,01,11,10,33,18.50
2017,01,11,10,34,20.50
2017,01,11,10,35,27.20
2017,01,11,10,36,14.00
2017,01,11,10,37,29.00
2017,01,11,10,38,16.30
2017,01,11,10,39,21.30
2017,01,11,10,40,21.30
2017,01,11,10,41,22.60
2017,01,11,10,42,16.50
2017,01,11,10,43,12.90
2017,01,11,10,44,24.70
2017,01,11,10,45,21.30
2017,01,11,10,46,19.00
2017,01,11,10,47,14.30
2017,01,11,10,48,25.10
2017,01,11,10,49,23.10
2017,01,11,10,50,24.00
2017,01,11,10,51,24.50
2017,01,11,10,52,20.50
2017,01,11,10,53,21.30
2017,01,11,10,54,17.60
2017,01,11,10,55,26.80
2017,01,11,10,56,26.80
2017,01,11,10,57,23.90
2017,01,11,10,58,28.60
2017,01,11,10,59,21.50
2017,01,11,11,00,22.70
2017,01,11,11,01,26.50
2017,01,11,11,02,20.20
2017,01,11,11,03,17.90
2017,01,11,11,04,23.40
2017,01,11,11,05,15.40
2017,01,11,11,06,22.60
2017,01,11,11,07,16.30
2017,01,11,11,08,19.60
2017,01,11,11,09,20.00
2017,01,11,11,10,20.60
2017,01,11,11,11,17.40
2017,01,11,11,12,21.80
2017,01,11,11,13,17.70
2017,01,11,11,14,17.60
2017,01,11,11,15,15.80
2017,01,11,11,16,25.90
2017,01,11,11,17,17.10
2017,01,11,11,18,21.60
2017,01,11,11,19,21.10
2017,01,11,11,20,17.00
2017,01,11,11,21,20.90
2017,01,11,11,22,22.60
2017,01,11,11,23,19.40
2017,01,11,11,24,13.10
2017,01,11,11,25,26.80
2017,01,11,11,26,20.50
2017,01,11,11,27,18.80
2017,01,11,11,28,20.00
2017,01,11,11,29,18.30
2017,01,11,11,30,13.90
2017,01,11,11,31,21.60
2017,01,11,11,32,21.60
2017,01,11,11,33,22.20
2017,01,11,11,34,27.40
2017,01,11,11,35,24.70
2017,01,11,11,36,20.40
2017,01,11,11,37,19.50
2017,01,11,11,38,17.00
2017,01,11,11,39,20.30
2017,01,11,11,40,16.70
2017,01,11,11,41,15.50
2017,01,11,11,42,16.30
2017,01,11,11,43,20.60
2017,01,11,11,44,23.90
2017,01,11,11,45,15.20
2017,01,11,11,46,9.00
2017,01,11,11,47,21.70
2017,01,11,11,48,17.10
2017,01,11,11,49,10.40
2017,01,11,11,50,23.00
2017,01,11,11,51,18.00
2017,01,11,11,52,17.30
2017,01,11,11,53,18.90
2017,01,11,11,54,21.30
2017,01,11,11,55,26.50
2017,01,11,11,56,18.20
2017,01,11,11,57,19.60
2017,01,11,11,58,21.10
2017,01,11,11,59,24.00
2017,01,11,12,00,18.00
2017,01,11,12,01,16.10
2017,01,11,12,02,20.20
2017,01,11,12,03,21.10
2017,01,11,12,04,19.10
2017,01,11,12,05,18.50
2017,01,11,12,06,17.40
2017,01,11,12,07,16.20
2017,01,11,12,08,14.40
2017,01,11,12,09,19.00
2017,01,11,12,10,19.40
2017,01,11,12,11,13.60
2017,01,11,12,12,18.80
2017,01,11,12,13,18.30
2017,01,11,12,14,19.40
2017,01,11,12,15,12.50
2017,01,11,12,16,18.70
2017,01,11,12,17,10.40
2017,01,11,12,18,17.90
2017,01,11,12,19,20.90
2017,01,11,12,20,22.90
2017,01,11,12,21,23.10
2017,01,11,12,22,26.50
2017,01,11,12,23,18.60
2017,01,11,12,24,21.50
2017,01,11,12,25,21.40
2017,01,11,12,26,24.40
2017,01,11,12,27,19.60
2017,01,11,12,28,18.90
2017,01,11,12,29,19.30
2017,01,11,12,30,22.50
2017,01,11,12,31,29.40
2017,01,11,12,32,24.50
2017,01,11,12,33,26.10
2017,01,11,12,34,24.30
2017,01,11,12,35,25.00
2017,01,11,12,36,25.50
2017,01,11,12,37,24.80
2017,01,11,12,38,19.50
2017,01,11,12,39,21.20
2017,01,11,12,40,14.80
2017,01,11,12,41,17.70
2017,01,11,12,42,13.00
2017,01,11,12,43,11.40
2017,01,11,12,44,20.00
2017,01,11,12,45,18.30
2017,01,11,12,46,18.30
2017,01,11,12,47,17.60
2017,01,11,12,48,24.10
2017,01,11,12,49,19.60
2017,01,11,12,50,14.30
2017,01,11,12,51,15.40
2017,01,11,12,52,16.40
2017,01,11,12,53,12.70
2017,01,11,12,54,10.20
2017,01,11,12,55,11.70
2017,01,11,12,56,9.90
2017,01,11,12,57,12.20
2017,01,11,12,58,11.30
2017,01,11,12,59,18.70
2017,01,11,13,00,17.40
2017,01,11,13,01,14.70
2017,01,11,13,02,22.00
2017,01,11,13,03,18.60
2017,01,11,13,04,19.00
2017,01,11,13,05,21.00
2017,01,11,13,06,21.00
2017,01,11,13,07,20.80
2017,01,11,13,08,24.80
2017,01,11,13,09,17.10
2017,01,11,13,10,14.20
2017,01,11,13,11,22.30
2017,01,11,13,12,20.00
2017,01,11,13,13,22.20
2017,01,11,13,14,20.90
2017,01,11,13,15,20.40
2017,01,11,13,16,18.50
2017,01,11,13,17,16.40
2017,01,11,13,18,22.00
2017,01,11,13,19,18.50
2017,01,11,13,20,18.60
2017,01,11,13,21,12.80
2017,01,11,13,22,9.90
2017,01,11,13,23,20.70
2017,01,11,13,24,22.40
2017,01,11,13,25,15.80
2017,01,11,13,26,19.30
2017,01,11,13,27,17.50
2017,01,11,13,28,18.80
2017,01,11,13,29,13.80
2017,01,11,13,30,13.70
2017,01,11,13,31,18.60
2017,01,11,13,32,13.90
2017,01,11,13,33,21.10
2017,01,11,13,34,19.30
2017,01,11,13,35,21.10
2017,01,11,13,36,18.90
2017,01,11,13,37,12.30
2017,01,11,13,38,13.70
2017,01,11,13,39,17.40
2017,01,11,13,40,18.20
2017,01,11,13,41,17.50
2017,01,11,13,42,13.40
2017,01,11,13,43,14.00
2017,01,11,13,44,13.80
2017,01,11,13,45,16.70
2017,01,11,13,46,24.00
2017,01,11,13,47,17.10
2017,01,11,13,48,15.80
2017,01,11,13,49,9.20
2017,01,11,13,50,13.40
2017,01,11,13,51,16.30
2017,01,11,13,52,17.00
2017,01,11,13,53,17.90
2017,01,11,13,54,14.60
2017,01,11,13,55,20.80
2017,01,11,13,56,18.50
2017,01,11,13,57,13.80
2017,01,11,13,58,21.20
2017,01,11,13,59,20.00
2017,01,11,14,00,22.10
2017,01,11,14,01,11.30
2017,01,11,14,02,15.80
2017,01,11,14,03,13.70
2017,01,11,14,04,19.80
2017,01,11,14,05,21.50
2017,01,11,14,06,15.50
2017,01,11,14,07,18.90
2017,01,11,14,08,11.60
2017,01,11,14,09,13.40
2017,01,11,14,10,15.90
2017,01,11,14,11,14.40
2017,01,11,14,12,14.00
2017,01,11,14,13,11.10
2017,01,11,14,14,13.80
2017,01,11,14,15,15.30
2017,01,11,14,16,13.10
2017,01,11,14,17,15.00
2017,01,11,14,18,12.40
2017,01,11,14,19,10.30
2017,01,11,14,20,8.90
2017,01,11,14,21,10.50
2017,01,11,14,22,9.00
2017,01,11,14,23,13.20
2017,01,11,14,24,15.30
2017,01,11,14,25,21.40
2017,01,11,14,26,19.10
2017,01,11,14,27,17.90
2017,01,11,14,28,15.00
2017,01,11,14,29,9.40
2017,01,11,14,30,19.40
2017,01,11,14,31,15.50
2017,01,11,14,32,17.60
2017,01,11,14,33,20.00
2017,01,11,14,34,15.80
2017,01,11,14,35,17.20
2017,01,11,14,36,17.20
2017,01,11,14,37,19.70
2017,01,11,14,38,13.70
2017,01,11,14,39,13.90
2017,01,11,14,40,18.40
2017,01,11,14,41,16.70
2017,01,11,14,42,12.50
2017,01,11,14,43,17.90
2017,01,11,14,44,17.50
2017,01,11,14,45,12.50
2017,01,11,14,46,12.80
2017,01,11,14,47,13.90
2017,01,11,14,48,13.70
2017,01,11,14,49,13.30
2017,01,11,14,50,9.00
2017,01,11,14,51,11.70
2017,01,11,14,52,12.70
2017,01,11,14,53,10.10
2017,01,11,14,54,9.70
2017,01,11,14,55,14.00
2017,01,11,14,56,9.10
2017,01,11,14,57,10.40
2017,01,11,14,58,7.40
2017,01,11,14,59,10.30
2017,01,11,15,00,12.30
2017,01,11,15,01,18.70
2017,01,11,15,02,24.80
2017,01,11,15,03,20.80
2017,01,11,15,04,11.50
2017,01,11,15,05,20.50
2017,01,11,15,06,12.80
2017,01,11,15,07,15.10
2017,01,11,15,08,15.70
2017,01,11,15,09,14.60
2017,01,11,15,10,15.70
2017,01,11,15,11,15.20
2017,01,11,15,12,17.20
2017,01,11,15,13,15.70
2017,01,11,15,14,16.90
2017,01,11,15,15,12.00
2017,01,11,15,16,11.60
2017,01,11,15,17,16.80
2017,01,11,15,18,15.20
2017,01,11,15,19,13.30
2017,01,11,15,20,18.20
2017,01,11,15,21,16.20
2017,01,11,15,22,18.30
2017,01,11,15,23,20.00
2017,01,11,15,24,19.10
2017,01,11,15,25,19.00
2017,01,11,15,26,10.60
2017,01,11,15,27,20.50
2017,01,11,15,28,15.40
2017,01,11,15,29,18.40
2017,01,11,15,30,18.00
2017,01,11,15,31,10.90
2017,01,11,15,32,13.90
2017,01,11,15,33,15.70
2017,01,11,15,34,10.40
2017,01,11,15,35,13.80
2017,01,11,15,36,17.10
2017,01,11,15,37,23.70
2017,01,11,15,38,25.20
2017,01,11,15,39,18.80
2017,01,11,15,40,9.00
2017,01,11,15,41,8.60
2017,01,11,15,42,7.00
2017,01,11,15,43,9.70
2017,01,11,15,44,14.40
2017,01,11,15,45,8.40
2017,01,11,15,46,11.60
2017,01,11,15,47,11.90
2017,01,11,15,48,7.40
2017,01,11,15,49,7.40
2017,01,11,15,50,5.30
2017,01,11,15,51,4.70
2017,01,11,15,52,4.70
2017,01,11,15,53,3.20
2017,01,11,15,54,4.50
2017,01,11,15,55,4.30
2017,01,11,15,56,7.80
2017,01,11,15,57,12.30
2017,01,11,15,58,14.20
2017,01,11,15,59,16.90
2017,01,11,16,00,11.40
2017,01,11,16,01,8.90
2017,01,11,16,02,5.70
2017,01,11,16,03,10.10
2017,01,11,16,04,11.40
2017,01,11,16,05,8.40
2017,01,11,16,06,5.10
2017,01,11,16,07,8.20
2017,01,11,16,08,10.50
2017,01,11,16,09,6.80
2017,01,11,16,10,9.80
2017,01,11,16,11,8.90
2017,01,11,16,12,13.30
2017,01,11,16,13,10.80
2017,01,11,16,14,4.30
2017,01,11,16,15,4.70
2017,01,11,16,16,9.70
2017,01,11,16,17,7.60
2017,01,11,16,18,9.00
2017,01,11,16,19,14.00
2017,01,11,16,20,13.50
2017,01,11,16,21,10.50
2017,01,11,16,22,18.20
2017,01,11,16,23,14.40
2017,01,11,16,24,17.10
2017,01,11,16,25,8.50
2017,01,11,16,26,11.30
2017,01,11,16,27,6.80
2017,01,11,16,28,7.00
2017,01,11,16,29,6.10
2017,01,11,16,30,7.00
2017,01,11,16,31,7.00
2017,01,11,16,32,9.80
2017,01,11,16,33,11.30
2017,01,11,16,34,8.40
2017,01,11,16,35,9.80
2017,01,11,16,36,8.70
2017,01,11,16,37,4.50
2017,01,11,16,38,10.10
2017,01,11,16,39,8.10
2017,01,11,16,40,13.20
2017,01,11,16,41,8.50
2017,01,11,16,42,14.10
2017,01,11,16,43,18.20
2017,01,11,16,44,13.60
2017,01,11,16,45,8.20
2017,01,11,16,46,12.50
2017,01,11,16,47,10.70
2017,01,11,16,48,7.10
2017,01,11,16,49,5.90
2017,01,11,16,50,11.70
2017,01,11,16,51,6.90
2017,01,11,16,52,8.80
2017,01,11,16,53,7.10
2017,01,11,16,54,7.40
2017,01,11,16,55,8.80
2017,01,11,16,56,8.80
2017,01,11,16,57,8.70
2017,01,11,16,58,6.70
2017,01,11,16,59,3.40
2017,01,11,17,00,5.10
2017,01,11,17,01,5.70
2017,01,11,17,02,10.50
2017,01,11,17,03,8.40
2017,01,11,17,04,3.70
2017,01,11,17,05,3.30
2017,01,11,17,06,10.20
2017,01,11,17,07,6.80
2017,01,11,17,08,9.30
2017,01,11,17,09,7.60
2017,01,11,17,10,6.40
2017,01,11,17,11,4.20
2017,01,11,17,12,5.10
2017,01,11,17,13,7.20
2017,01,11,17,14,7.60
2017,01,11,17,15,4.60
2017,01,11,17,16,10.80
2017,01,11,17,17,9.00
2017,01,11,17,18,6.80
2017,01,11,17,19,6.70
2017,01,11,17,20,9.90
2017,01,11,17,21,5.80
2017,01,11,17,22,6.60
2017,01,11,17,23,6.70